SCP
2 2 1 1 1 0 0 0 0 0 0 0 0 0 0 0 0 0 0 0 1 1 1 1 2 2 1 1 1 1 0 0 0 0 0 1 1 1 1 1 1 1 2 2 2 1 1 1 1
2 1 1 1 0 0 0 0 0 0 0 0 0 0 0 0 0 0 0 0 1 1 1 1 1 1 1 1 1 1 1 0 0 0 0 1 1 1 1 1 1 1 2 2 1 1 1 1 1
1 1 1 1 0 0 0 0 0 0 0 0 0 0 0 0 0 0 0 0 1 1 1 1 1 1 1 1 1 1 1 0 0 0 1 1 1 1 1 1 1 2 2 1 1 1 1 1 1
1 1 1 0 0 0 0 0 0 0 0 0 0 0 0 0 0 0 0 0 0 1 1 1 1 1 1 1 1 1 1 1 1 1 1 1 1 1 1 1 1 1 1 1 1 1 1 1 1
1 1 0 0 0 0 0 0 0 0 0 0 0 0 0 0 0 0 0 0 0 0 0 1 1 1 1 1 1 1 1 1 1 1 1 1 1 1 1 1 1 1 1 1 1 1 1 1 1
1 0 0 0 0 0 0 0 0 0 0 0 0 0 0 0 0 0 0 0 0 0 0 1 1 1 1 1 1 1 1 1 1 1 1 1 1 1 1 1 1 1 1 1 1 1 1 1 1
0 0 0 0 0 0 0 0 0 0 0 0 0 0 1 1 1 1 1 1 0 0 0 1 1 1 1 1 1 1 1 1 1 1 1 1 1 1 1 1 1 1 1 1 1 1 1 1 1
0 0 0 0 0 0 0 0 0 0 0 0 0 0 1 1 1 1 1 1 1 1 0 1 1 1 1 1 1 1 1 1 1 1 1 1 0 0 1 1 1 1 1 1 1 1 1 1 1
0 0 0 0 0 0 0 0 0 0 0 0 0 0 1 1 1 1 1 1 1 1 1 1 1 1 1 1 1 1 1 1 1 1 0 0 0 0 0 0 1 1 1 1 1 1 1 1 1
0 0 0 0 0 0 0 0 0 0 0 0 0 1 1 1 1 1 1 1 1 1 1 1 1 1 1 1 1 1 1 1 1 1 0 0 0 0 0 1 1 1 1 1 1 1 1 1 1
0 0 0 0 0 0 0 0 0 0 0 0 1 1 1 1 1 1 1 1 1 1 1 1 1 1 1 1 1 1 1 1 1 1 1 0 0 0 0 0 1 1 1 1 0 0 0 1 1
0 0 0 0 0 0 0 0 0 0 0 0 1 1 1 1 1 1 1 1 0 1 1 1 1 1 1 1 1 1 1 1 1 1 1 0 0 0 0 0 0 0 0 0 0 0 0 1 1
0 0 0 0 0 0 0 0 0 0 0 1 1 1 1 1 1 1 1 1 1 1 1 1 1 1 1 1 1 1 1 1 1 1 1 1 1 0 0 0 0 0 0 0 0 0 1 1 1
0 0 0 0 0 0 0 0 0 0 0 1 1 1 1 1 1 1 1 1 1 1 1 1 1 1 1 1 1 1 1 1 1 1 1 1 1 1 0 0 0 0 0 0 0 0 1 1 1
0 0 0 0 0 0 0 0 0 0 0 1 1 1 1 1 1 1 1 2 2 2 1 1 1 1 2 1 1 1 1 1 1 1 2 1 1 1 1 0 0 0 0 0 0 0 0 1 1
0 0 0 0 0 0 0 0 1 0 0 1 1 1 1 1 2 2 3 3 2 1 1 1 1 1 2 2 1 1 1 1 1 2 2 2 2 1 1 1 0 0 0 0 0 0 0 0 0
0 0 0 0 0 0 0 0 1 0 0 1 1 1 1 2 3 3 3 2 1 1 1 1 1 2 2 2 1 1 1 1 2 2 2 2 2 2 1 1 1 0 0 0 0 0 1 1 1
0 0 0 0 0 0 0 1 1 1 0 1 1 1 2 2 3 3 2 1 1 1 1 1 2 2 2 2 1 1 1 2 2 2 2 2 2 2 1 1 1 1 1 1 1 1 1 1 1
0 0 0 0 0 0 0 1 1 1 1 1 1 1 2 2 2 2 2 1 1 2 2 2 2 2 3 2 2 2 2 2 2 2 2 2 2 2 2 1 1 1 1 1 1 1 1 1 1
0 0 0 0 0 0 0 1 1 1 1 1 1 2 2 2 2 2 2 2 2 3 3 3 2 2 3 3 2 2 2 2 2 2 2 2 2 2 2 2 2 2 1 1 1 1 1 1 1
0 0 0 0 0 0 0 1 1 1 1 1 1 1 2 2 2 2 2 2 3 3 3 3 3 3 3 3 3 2 2 2 2 2 2 2 2 2 2 3 3 2 2 1 1 1 1 1 1
0 0 0 0 0 0 0 0 1 1 1 1 1 2 2 2 2 2 2 2 3 3 3 3 3 3 3 3 3 3 3 2 2 2 2 3 3 2 2 3 3 3 3 2 1 1 2 2 2
0 0 0 0 0 0 0 0 0 1 1 1 1 2 2 2 2 2 2 2 2 2 2 3 3 3 3 4 3 3 3 3 3 3 3 3 3 3 3 3 3 3 3 2 2 2 2 2 2
0 0 0 0 0 0 0 0 0 1 1 1 1 1 1 1 2 2 2 2 2 2 2 2 3 3 3 3 4 4 3 3 4 5 5 4 3 3 3 3 3 3 2 2 2 2 2 2 2
0 0 0 0 0 0 0 0 0 0 0 1 1 1 1 1 2 3 2 2 2 2 2 2 3 3 3 3 4 4 3 4 5 6 6 5 3 2 2 3 3 2 2 2 2 2 3 3 3
0 0 0 0 0 0 0 0 0 0 0 1 1 1 1 2 3 3 2 2 3 3 2 3 3 3 3 3 4 4 3 4 5 6 5 4 3 2 2 2 2 2 2 2 3 3 3 3 3
0 0 0 0 0 0 0 0 0 0 1 1 1 1 1 2 3 2 2 2 3 3 3 3 3 3 3 4 4 4 3 3 4 3 3 2 3 3 2 2 2 2 2 3 3 3 4 4 4
0 0 0 0 0 0 0 0 0 1 1 1 1 1 1 2 3 2 2 2 3 3 3 3 3 3 3 4 4 4 3 3 3 2 2 2 3 2 2 2 2 2 3 3 3 4 4 4 4
0 0 0 0 0 0 0 1 1 1 1 1 1 1 1 2 2 2 2 2 3 4 5 5 4 4 4 4 4 4 4 3 3 3 2 2 3 2 2 2 3 3 3 4 4 4 3 3 3
0 0 0 0 0 0 0 1 1 1 1 1 1 1 2 2 2 2 2 3 3 5 7 7 5 4 4 5 4 4 3 3 3 3 2 2 2 2 2 2 3 3 3 4 4 4 3 3 3
Wind_Speed
9 9 7 6 3 9 15 12 11 9 8 10 10 9 10 12 10 10 7 7 8 9 10 12 12 12 13 13 13 13 13 13 13 13 13 14 14 14 14 14 15 15 15 16 16 16 16 16 15
6 6 7 3 6 11 13 11 12 12 9 8 9 9 11 11 10 9 7 8 8 9 10 12 12 12 12 12 12 13 13 13 13 13 13 13 14 14 14 14 14 15 15 15 16 16 16 15 15
5 6 4 4 12 12 12 11 11 11 8 6 7 9 8 9 8 7 8 9 9 10 11 13 11 12 12 12 12 12 13 13 13 13 13 14 14 13 14 14 14 15 15 15 15 15 15 14 14
5 5 1 9 16 14 12 10 9 9 9 8 8 10 9 8 5 8 10 9 10 10 11 14 11 12 12 12 12 12 13 13 13 13 13 14 14 14 14 14 14 15 15 14 14 14 14 13 13
5 1 8 13 15 12 10 8 6 8 7 9 9 12 10 8 10 11 9 8 9 10 11 13 12 11 12 12 12 13 13 13 13 13 13 13 13 14 14 14 14 14 14 13 13 13 13 12 12
3 1 8 13 13 10 9 7 8 11 11 10 11 12 10 8 10 9 9 8 9 10 11 13 12 11 12 12 12 12 13 13 13 13 13 13 13 13 14 14 14 13 13 13 12 12 12 11 10
3 6 10 12 12 11 8 7 7 9 10 9 8 10 10 9 9 9 8 7 8 9 9 9 11 11 11 11 11 12 12 13 13 12 13 13 13 13 13 12 12 12 12 12 11 11 11 10 9
3 3 10 10 11 11 9 7 7 8 10 8 5 7 10 11 10 10 9 8 8 8 8 8 8 8 9 11 11 12 11 12 12 12 12 12 13 12 11 11 11 11 10 10 10 10 10 9 8
4 2 9 9 9 10 9 9 8 7 10 7 6 8 13 15 12 11 9 9 8 7 6 7 8 7 7 9 10 10 10 9 10 10 9 7 7 9 8 12 10 9 9 9 9 9 8 7 8
2 5 10 8 7 9 9 8 9 8 9 9 10 12 15 14 12 10 9 9 9 7 7 6 6 6 7 6 6 5 6 6 5 6 6 5 5 5 8 11 9 9 9 8 8 7 7 6 6
3 7 8 7 7 7 8 8 6 7 7 9 12 15 15 13 11 10 8 8 8 7 6 6 6 4 5 5 4 3 4 4 5 6 5 4 4 5 5 5 7 7 7 5 7 6 2 2 3
4 6 5 6 6 6 7 7 6 4 7 9 12 15 15 13 11 10 9 8 8 6 6 6 6 5 3 3 4 3 3 3 4 5 3 4 3 3 3 2 3 3 3 2 2 2 2 2 2
4 5 5 5 6 6 6 6 6 7 8 10 13 15 14 12 10 9 9 8 7 7 6 6 5 5 4 3 2 3 3 3 4 3 3 2 2 3 3 2 1 1 2 2 1 1 2 1 1
4 5 6 6 6 6 6 7 5 8 10 12 13 13 13 11 11 10 9 8 8 7 7 6 6 5 4 3 2 2 3 3 2 2 3 2 2 2 2 2 1 1 1 1 1 1 1 1 0
5 7 8 6 6 5 6 7 6 9 11 12 12 12 12 11 10 10 9 8 8 7 7 6 6 5 5 4 3 3 3 3 3 3 3 2 2 2 2 1 1 1 1 1 1 0 0 1 2
7 8 8 7 5 5 8 6 9 10 11 11 11 11 11 11 11 9 9 8 7 7 7 7 6 6 5 4 2 2 2 2 2 2 3 3 2 2 2 1 1 1 2 1 1 2 1 0 1
9 9 7 8 6 5 7 4 9 9 10 11 11 11 11 11 11 10 10 10 9 8 8 8 7 7 6 5 4 3 2 1 1 2 2 3 3 3 3 1 1 2 2 1 2 0 1 1 2
9 8 7 7 7 6 7 4 8 9 9 10 11 11 11 11 11 11 11 10 9 9 9 8 8 7 6 5 4 3 3 3 3 2 2 2 2 3 3 2 2 3 2 2 1 1 2 3 3
6 8 7 5 4 6 7 5 6 9 10 10 11 11 11 11 11 11 11 11 10 10 10 9 9 8 6 5 4 4 4 3 3 3 3 3 3 3 3 3 2 3 2 2 3 3 3 3 2
9 9 8 6 4 5 6 6 5 8 10 10 10 11 11 11 11 11 11 11 11 11 10 10 10 9 9 6 4 3 3 3 3 2 2 4 4 4 4 4 3 3 2 3 3 3 3 2 2
11 11 8 6 6 6 7 9 8 8 9 10 10 11 12 12 12 12 12 12 12 12 12 10 10 10 9 8 6 4 4 4 4 4 3 4 4 4 4 4 4 3 4 3 4 4 4 3 3
11 8 7 8 9 6 7 7 8 8 9 11 11 12 12 12 12 12 13 13 12 12 11 11 11 10 9 9 8 8 6 5 4 3 3 3 4 4 4 4 4 4 4 3 5 3 3 4 4
7 6 8 9 9 8 8 9 5 7 8 9 10 12 12 12 12 12 12 12 11 11 11 10 10 10 9 9 8 8 7 5 4 3 3 3 3 4 4 4 4 4 4 4 4 3 4 4 4
8 8 6 8 10 11 9 9 5 5 6 6 7 9 10 11 11 11 10 10 10 10 10 10 10 9 9 9 9 8 7 6 5 4 3 4 3 3 4 4 4 4 4 4 4 4 5 4 4
13 12 9 10 10 9 6 9 5 2 3 4 4 6 7 9 10 10 11 11 10 10 10 9 10 9 9 9 9 8 8 7 6 5 4 3 3 3 3 3 3 4 4 4 4 4 5 4 5
16 17 12 9 10 8 8 9 4 2 2 3 3 4 6 8 9 10 10 10 10 10 9 9 9 8 8 8 7 6 6 5 4 4 3 3 2 2 2 3 3 4 4 4 4 4 4 3 4
16 16 13 10 8 9 8 7 6 5 5 4 4 5 6 8 9 10 10 10 9 9 9 8 8 7 7 7 6 5 5 5 3 3 3 3 2 2 2 2 3 3 3 3 4 3 3 3 3
11 13 9 11 10 11 10 10 7 8 7 5 5 5 6 7 8 9 8 8 8 8 8 7 7 6 6 6 5 4 4 4 3 3 3 2 2 2 2 2 2 2 2 3 3 2 2 3 2
12 14 12 10 10 11 9 7 3 4 4 5 5 5 7 7 8 8 8 8 8 8 8 7 6 6 5 5 4 4 3 3 3 3 3 2 2 2 3 2 2 2 2 2 1 1 1 1 1
15 15 14 12 9 10 10 4 6 3 3 4 5 6 7 7 8 8 9 8 8 8 7 7 6 6 5 5 4 4 3 3 3 2 2 2 2 2 2 1 1 1 1 0 0 0 0 1 1
Wind_Direction
193 193 214 231 181 77 69 69 69 74 67 58 56 53 56 42 40 75 89 93 90 91 95 94 83 85 86 88 89 90 92 95 96 103 106 109 110 111 110 109 110 109 109 110 110 110 109 108 108
191 195 225 236 73 81 72 71 70 67 83 85 69 66 68 63 60 91 104 98 97 95 96 88 85 85 87 88 90 91 93 95 96 100 105 108 110 111 110 110 110 111 110 110 110 109 108 107 107
203 228 263 69 61 68 80 78 82 83 81 78 79 62 57 69 79 88 100 111 101 94 93 90 87 87 87 87 87 89 91 94 95 97 103 107 107 109 109 109 109 110 109 109 109 109 109 108 107
223 215 175 77 75 69 80 91 98 98 82 78 92 84 75 62 76 99 111 112 105 100 96 93 89 88 88 86 87 90 92 93 92 93 100 104 107 108 106 106 106 107 107 107 107 108 109 109 108
240 221 96 85 79 79 80 83 90 86 84 88 91 95 85 75 96 109 115 112 104 99 98 97 91 89 87 85 86 89 92 90 88 88 95 100 103 104 105 105 105 105 105 106 106 107 108 107 108
236 121 86 87 88 89 88 94 94 95 102 103 103 101 88 106 113 115 112 108 105 103 101 102 99 92 90 88 87 87 89 90 89 88 94 98 99 102 103 103 103 104 103 103 105 107 109 108 109
12 67 84 91 98 95 89 97 97 102 105 100 107 102 111 123 120 119 116 112 104 103 104 109 115 110 102 92 89 90 91 93 91 89 93 97 97 97 99 101 102 103 103 103 104 108 110 113 113
330 100 95 91 92 92 105 105 102 107 99 110 115 112 129 137 137 129 122 114 108 105 104 107 100 105 114 110 98 95 93 94 95 92 94 100 106 105 108 111 103 104 106 105 107 110 111 113 116
270 97 85 83 88 105 123 123 110 107 117 114 94 97 119 135 140 136 132 126 120 111 107 108 110 114 110 106 111 114 108 105 114 107 107 124 118 115 122 97 107 112 110 109 109 112 119 131 134
285 77 75 72 81 110 128 127 128 137 130 125 116 112 126 143 147 145 143 139 133 129 125 114 110 117 111 107 114 119 115 112 104 101 108 105 95 92 99 110 109 114 116 119 117 129 163 192 144
56 74 87 97 96 114 127 125 138 143 136 141 141 142 147 151 152 151 147 139 134 138 133 126 115 101 105 111 113 102 104 111 114 108 111 101 111 117 117 128 133 133 147 139 139 174 158 110 85
93 84 89 100 112 127 124 127 133 120 95 122 141 147 152 158 158 154 150 147 143 146 139 131 130 126 104 96 110 124 123 122 113 113 119 112 96 96 98 111 115 138 124 102 116 106 93 74 93
115 103 102 119 133 129 134 123 111 107 110 126 139 151 159 160 157 155 153 151 150 154 150 141 143 137 135 124 132 119 113 115 113 121 113 111 116 103 99 93 89 109 110 140 117 95 103 138 142
108 118 122 129 131 141 148 133 136 120 131 140 151 160 165 163 163 161 162 160 162 163 157 154 161 153 152 155 151 130 129 125 121 126 114 115 102 100 110 130 123 95 110 62 69 107 139 208 124
151 153 142 135 143 153 171 152 140 136 149 153 161 165 167 170 173 174 170 172 170 165 160 165 170 167 171 176 175 163 155 152 140 127 133 152 155 147 165 145 178 130 136 143 183 89 245 221 199
188 194 168 141 160 168 219 140 136 152 165 164 168 170 175 178 184 181 175 178 177 175 172 179 183 174 179 184 197 190 176 151 150 151 153 162 171 191 218 187 186 156 205 200 200 233 245 280 268
198 202 173 148 171 181 223 135 136 165 176 174 177 179 183 183 191 187 185 185 185 188 185 186 192 184 183 181 190 202 189 190 193 180 178 172 192 202 225 225 170 217 228 234 260 120 285 275 275
195 195 187 168 164 199 213 164 148 175 189 186 185 185 189 192 193 191 191 191 191 192 194 195 193 192 188 188 189 204 206 204 209 201 199 211 212 214 234 222 208 232 231 234 259 276 266 275 273
219 211 194 160 152 214 218 209 181 180 196 197 193 191 195 199 193 191 194 195 193 193 195 197 200 191 195 198 203 203 202 210 209 206 200 211 224 222 232 249 211 237 234 252 254 253 240 253 273
213 213 197 161 163 232 225 225 199 191 205 206 202 201 201 197 193 192 194 195 197 194 197 199 201 199 200 198 207 217 220 224 221 226 203 223 228 232 225 229 235 227 237 242 247 250 272 269 253
212 217 204 184 175 211 234 216 200 199 208 210 211 212 209 201 196 194 196 197 197 197 198 200 201 201 204 202 205 207 200 216 215 215 216 224 232 235 248 235 244 244 242 234 244 249 254 270 264
208 212 208 197 212 200 230 236 187 190 200 207 211 212 211 204 200 198 197 196 198 199 198 199 198 199 198 201 212 217 220 224 227 227 217 220 229 237 238 240 239 245 248 241 248 236 255 262 265
204 177 205 215 229 234 214 252 188 181 209 208 207 209 210 205 202 199 198 196 196 198 197 195 196 198 197 201 207 217 227 227 225 221 223 237 226 232 238 241 241 243 251 253 262 262 256 254 261
159 163 181 218 231 231 225 246 228 193 218 215 200 203 206 203 199 196 193 190 192 195 196 193 190 195 197 201 205 214 224 230 235 231 232 232 223 226 226 236 238 241 251 253 253 253 243 252 262
193 192 195 205 216 225 202 239 244 194 224 235 220 207 204 196 192 189 188 186 187 193 194 193 191 194 198 202 206 211 219 224 229 237 231 241 240 230 222 239 237 242 238 246 253 247 259 250 250
206 213 221 219 216 205 192 234 223 184 217 222 215 203 195 189 183 184 185 184 184 187 189 189 189 194 196 200 205 211 217 225 230 229 244 236 251 261 254 243 245 249 246 245 241 250 243 240 245
204 221 236 243 245 237 207 214 219 201 198 200 192 181 181 180 177 177 176 175 176 177 178 180 180 187 190 193 195 200 210 224 236 229 229 237 235 241 242 253 254 262 252 251 248 249 247 235 239
230 211 214 232 230 232 220 221 218 188 193 195 188 176 166 167 166 165 164 162 162 165 166 169 171 175 178 182 190 189 195 201 210 224 215 223 227 244 249 257 255 252 251 247 245 238 240 229 230
196 207 217 223 239 240 229 215 183 192 191 194 179 165 160 157 154 150 147 148 151 153 154 157 159 163 166 173 177 180 179 185 196 205 208 210 210 222 232 233 233 227 240 250 238 238 241 241 262
210 210 208 215 217 242 256 187 124 167 182 185 168 151 146 145 140 139 140 142 144 144 143 146 153 158 158 157 158 155 158 168 181 184 184 195 199 212 223 218 207 196 193 223 217 66 30 8 354